Temp
4 4 4 4 4 4 4 4 4 4 4 4 4 4 5 5 4 4 4 4 4 4 5 7 9 9 9 10 9 9 10 10 9 9 8 8 7 11 12 13 12 11 10 10 11 12 12 16 17 17 15 15 16 16
4 4 4 4 4 5 5 5 5 5 5 5 5 5 5 5 4 4 5 4 4 5 5 7 8 10 11 10 10 9 10 10 10 9 8 8 7 6 11 12 15 12 13 12 13 13 15 15 16 16 15 15 16 15
3 4 4 4 5 5 6 6 5 5 5 5 5 5 5 5 5 4 5 4 4 5 5 5 7 9 9 10 9 9 9 12 11 9 8 9 10 9 10 10 14 14 15 14 13 16 16 17 16 16 15 16 17 16
4 4 4 5 5 5 5 5 5 5 5 5 5 5 5 5 5 5 5 5 5 5 5 7 7 6 10 10 10 9 9 10 10 8 8 6 8 10 9 12 13 15 14 15 14 16 17 17 17 17 17 17 17 17
4 5 5 5 5 5 5 5 4 4 5 5 5 5 5 5 5 5 5 5 6 6 5 6 8 8 10 9 9 9 8 9 9 9 7 7 8 10 9 10 11 12 12 12 14 15 15 16 18 18 17 18 17 17
4 5 5 5 5 5 5 5 5 5 5 5 5 5 5 5 5 5 5 5 6 7 6 6 7 8 8 9 9 8 8 8 8 8 7 8 10 10 8 9 9 8 8 10 10 11 13 14 12 13 15 14 15 14
5 5 5 5 5 5 5 5 4 5 5 5 5 5 5 5 4 5 5 5 6 8 6 5 7 8 8 8 8 8 8 9 9 9 8 9 9 10 6 9 7 7 7 9 9 11 12 11 12 11 12 12 12 12
5 5 5 5 4 4 4 4 4 5 5 5 5 5 5 4 5 6 5 7 6 6 7 5 5 6 8 7 8 7 8 8 8 9 8 9 9 9 8 5 6 6 6 8 7 9 9 10 11 10 10 10 8 5
4 4 4 5 5 4 4 4 3 4 5 5 5 5 4 5 5 5 6 7 8 7 4 2 4 7 6 6 6 7 6 6 7 5 8 9 6 4 4 4 4 4 4 6 8 7 8 7 6 5 6 5 3 2
4 4 4 4 4 5 5 6 5 5 5 6 7 4 3 4 5 9 7 4 4 5 5 3 4 5 6 5 5 6 3 5 8 7 7 5 3 3 2 3 2 2 3 4 6 5 5 6 4 2 1 1 0 -1
4 3 3 4 4 5 6 6 6 7 8 6 3 4 4 6 6 4 4 4 5 5 4 5 6 5 5 6 6 4 6 6 6 8 6 4 3 2 1 1 1 1 2 2 3 2 3 3 2 1 -1 -1 -2 -3
4 4 4 4 5 5 6 7 8 7 5 6 6 5 5 5 5 5 5 4 5 6 5 5 6 6 5 5 6 6 6 6 7 5 3 1 2 1 1 -0 -1 -1 -0 -0 -0 -1 -1 -1 -2 -2 -3 -4 -4 -5
4 4 5 5 5 6 7 6 6 7 7 7 5 4 4 2 1 2 4 5 4 3 2 3 5 4 4 4 5 5 7 7 5 3 1 1 0 -0 -1 -1 -2 -2 -2 -3 -3 -3 -4 -4 -4 -4 -4 -5 -5 -6
4 4 4 4 5 5 6 7 7 7 6 2 2 0 -0 -1 0 -0 -0 -0 1 1 1 2 4 5 3 5 5 6 4 4 1 1 -1 -0 -1 -1 -2 -2 -3 -3 -4 -4 -4 -4 -5 -5 -5 -5 -6 -6 -6 -6
4 4 4 4 4 5 5 5 5 5 0 -1 -0 -2 -1 -1 -3 -2 -2 -1 -0 -1 1 3 4 4 3 3 2 4 2 -0 -0 -2 -1 -2 -2 -2 -2 -3 -3 -4 -4 -5 -5 -5 -5 -5 -5 -6 -6 -6 -6 -6
4 4 3 4 4 4 5 5 4 3 -0 -1 -2 -2 -2 -3 -3 -4 -4 -1 -1 -0 1 2 3 2 2 1 1 1 0 -1 -2 -3 -3 -3 -4 -4 -3 -3 -4 -4 -4 -5 -5 -5 -5 -6 -6 -6 -7 -7 -7 -7
5 3 4 4 4 4 4 3 2 -0 -1 -1 -2 -3 -3 -2 -2 -2 -2 -2 -2 -0 0 1 -1 -0 1 0 -1 -2 -3 -3 -4 -4 -5 -5 -5 -5 -5 -5 -6 -6 -6 -6 -5 -5 -5 -6 -6 -6 -6 -7 -8 -8
3 3 3 4 5 4 3 3 -1 -0 -2 -2 -2 -3 -3 -4 -4 -4 -3 -3 -2 -1 -1 -2 -1 -4 -3 -2 -4 -4 -5 -5 -5 -5 -5 -6 -6 -7 -7 -7 -7 -7 -7 -7 -8 -8 -8 -7 -7 -8 -7 -8 -8 -9
3 3 4 4 4 3 0 0 1 -1 -2 -3 -4 -4 -4 -4 -4 -4 -3 -3 -3 -3 -3 -4 -6 -5 -6 -5 -4 -5 -5 -5 -6 -6 -7 -7 -7 -7 -8 -8 -8 -9 -9 -8 -9 -9 -10 -10 -10 -10 -10 -9 -9 -10
3 4 4 5 5 2 1 1 1 0 -1 -2 -2 -4 -4 -4 -4 -4 -4 -2 -2 -3 -5 -6 -6 -6 -6 -5 -4 -5 -5 -5 -6 -7 -7 -8 -8 -8 -9 -9 -9 -10 -10 -11 -11 -10 -10 -11 -12 -12 -12 -12 -12 -12
4 4 5 5 4 4 1 1 0 -0 -1 -0 -1 -1 -2 -3 -4 -5 -4 -3 -4 -5 -5 -6 -6 -6 -6 -6 -6 -6 -6 -6 -6 -6 -7 -8 -9 -9 -9 -10 -11 -11 -12 -12 -12 -13 -12 -13 -13 -12 -12 -13 -13 -13
3 4 4 4 1 1 1 1 1 0 1 0 -1 -1 -3 -6 -6 -5 -4 -5 -6 -6 -6 -6 -6 -6 -6 -6 -7 -7 -8 -8 -9 -9 -10 -10 -10 -11 -11 -12 -12 -12 -13 -13 -14 -14 -14 -13 -13 -13 -13 -13 -13 -14
4 4 3 1 -0 -0 -0 1 0 2 -1 -1 -2 -3 -5 -8 -5 -4 -8 -5 -6 -6 -6 -6 -7 -7 -7 -7 -8 -8 -8 -9 -10 -11 -11 -12 -13 -13 -13 -13 -13 -13 -14 -14 -14 -14 -14 -14 -14 -14 -14 -14 -14 -15
3 -1 -1 -3 -2 -3 -4 -3 -1 -1 -3 -4 -4 -5 -4 -6 -6 -8 -7 -7 -6 -6 -6 -7 -7 -8 -8 -9 -10 -10 -10 -11 -12 -12 -12 -12 -13 -14 -14 -15 -14 -14 -14 -14 -14 -14 -14 -15 -15 -15 -15 -15 -15 -16
-1 -3 -3 -3 -3 -4 -7 -8 -6 -4 -6 -6 -6 -6 -6 -5 -9 -9 -8 -7 -8 -9 -9 -8 -8 -9 -10 -11 -11 -11 -11 -11 -13 -13 -13 -12 -14 -14 -15 -16 -16 -16 -15 -15 -15 -15 -15 -15 -16 -16 -16 -16 -16 -17
-5 -5 -3 -5 -5 -3 -5 -6 -7 -6 -8 -7 -5 -5 -8 -10 -11 -9 -7 -10 -12 -11 -12 -13 -11 -11 -11 -11 -12 -12 -12 -12 -13 -14 -15 -13 -14 -14 -15 -17 -17 -17 -17 -16 -16 -16 -16 -16 -16 -17 -17 -17 -17 -17
-6 -6 -3 -2 -2 -2 -5 -6 -5 -7 -7 -6 -8 -9 -12 -13 -12 -8 -8 -10 -10 -11 -10 -9 -10 -11 -12 -12 -12 -12 -12 -12 -13 -14 -15 -15 -15 -15 -15 -16 -17 -17 -17 -17 -16 -17 -17 -17 -17 -17 -17 -17 -17 -18
-3 -5 -7 -9 -7 -6 -9 -9 -9 -9 -9 -6 -9 -12 -13 -13 -10 -10 -12 -10 -10 -10 -10 -10 -10 -11 -12 -12 -13 -13 -13 -14 -14 -15 -16 -16 -16 -16 -16 -17 -17 -17 -17 -17 -17 -17 -17 -18 -18 -18 -18 -18 -18 -18
-8 -7 -8 -10 -9 -9 -8 -10 -10 -8 -8 -8 -14 -13 -11 -9 -12 -10 -10 -10 -10 -10 -12 -12 -13 -12 -13 -13 -13 -14 -13 -14 -15 -19 -20 -21 -17 -17 -17 -17 -17 -17 -17 -17 -17 -17 -18 -18 -18 -18 -17 -18 -18 -18
-7 -7 -9 -12 -11 -9 -10 -11 -13 -16 -11 -11 -10 -10 -11 -12 -11 -9 -10 -10 -10 -11 -11 -11 -12 -11 -13 -13 -15 -15 -15 -14 -14 -14 -20 -21 -17 -17 -17 -17 -18 -18 -18 -18 -18 -18 -18 -18 -18 -18 -18 -18 -19 -19
-6 -9 -10 -10 -10 -12 -14 -13 -9 -10 -15 -16 -19 -17 -15 -14 -11 -11 -10 -10 -11 -11 -11 -12 -12 -12 -13 -14 -14 -15 -16 -16 -16 -16 -16 -16 -17 -17 -18 -18 -18 -18 -18 -19 -18 -19 -19 -19 -19 -19 -19 -19 -19 -20
-10 -12 -11 -10 -9 -11 -13 -12 -16 -16 -18 -18 -18 -21 -18 -18 -17 -13 -12 -11 -11 -11 -11 -11 -12 -13 -13 -14 -14 -15 -15 -16 -16 -17 -17 -17 -17 -18 -18 -18 -18 -19 -19 -19 -19 -19 -19 -19 -19 -20 -20 -20 -21 -21
-11 -9 -13 -12 -11 -11 -12 -12 -13 -12 -14 -16 -15 -16 -16 -16 -16 -14 -13 -12 -11 -11 -11 -12 -13 -13 -14 -15 -15 -16 -16 -17 -17 -17 -18 -18 -18 -18 -18 -19 -19 -19 -19 -19 -20 -20 -20 -20 -20 -21 -21 -21 -22 -22
Height
614 610 607 604 602 600 599 599 600 603 606 611 617 623 631 640 649 660 665 671 678 686 682 679 677 679 686 691 699 700 708 707 713 721 726 724 730 706 705 698 706 718 728 727 725 719 714 670 661 677 683 672 667 661
606 602 597 594 590 587 586 586 587 590 593 598 603 611 619 628 638 652 660 666 675 679 681 678 679 676 675 679 686 693 692 693 697 707 717 711 719 722 701 704 689 707 699 708 701 703 685 669 663 669 675 672 665 665
598 592 588 584 580 578 577 576 577 578 581 586 592 600 608 618 628 638 650 658 671 675 682 682 678 677 675 676 679 686 689 685 688 691 701 700 698 698 702 705 691 686 683 688 692 674 674 666 666 661 663 660 657 657
591 586 581 576 574 572 569 566 565 566 568 573 580 589 598 609 621 633 639 648 662 672 678 672 671 674 671 673 675 680 683 683 684 691 695 702 700 685 697 688 684 677 679 677 676 672 666 661 659 654 653 652 649 653
587 582 578 575 572 567 561 555 554 555 555 558 568 579 591 604 617 628 637 646 654 662 669 668 664 667 668 672 672 680 680 682 685 691 697 696 689 688 689 690 683 684 685 682 672 662 660 657 646 642 648 648 652 653
584 582 580 577 572 566 558 554 554 555 555 556 563 576 590 604 616 624 637 648 651 654 659 667 660 662 665 668 670 675 678 679 682 687 694 688 678 681 695 691 695 693 701 689 681 672 660 658 657 653 652 652 651 650
587 586 584 581 575 569 564 560 562 562 563 565 565 581 596 609 617 625 630 632 646 653 660 663 660 658 661 666 671 671 672 674 678 683 687 682 682 678 694 685 696 698 697 688 680 665 662 665 664 662 660 658 657 657
594 592 590 588 582 579 575 572 572 570 570 578 583 592 606 618 626 630 627 629 645 653 650 664 668 664 661 669 670 670 674 675 676 673 675 678 678 682 690 705 703 702 698 690 684 674 673 670 668 667 664 662 664 669
599 598 598 596 594 591 590 589 587 586 588 593 599 605 614 621 628 631 635 642 648 649 658 668 671 665 663 667 668 670 671 680 672 681 673 674 689 708 715 711 708 708 705 698 689 685 680 679 682 677 674 673 676 682
605 606 606 606 604 602 600 600 601 602 603 607 608 611 621 626 628 631 637 645 647 649 651 663 661 664 664 669 673 673 679 681 673 675 674 692 714 718 718 715 712 709 705 702 689 684 684 681 687 690 691 691 690 692
615 615 615 614 612 611 609 607 605 604 603 608 618 625 630 629 631 639 653 658 657 661 662 662 660 665 668 668 669 675 672 675 676 671 678 703 718 722 722 721 717 713 711 706 700 699 695 694 696 701 703 701 701 702
626 625 623 621 619 616 613 611 609 608 610 615 621 630 632 636 640 645 654 658 658 656 663 662 661 661 666 666 668 670 671 673 673 677 698 722 725 725 724 725 721 720 716 712 709 709 708 706 710 711 710 711 710 710
632 631 630 629 626 624 622 620 619 619 620 621 626 636 641 654 665 669 658 658 663 669 672 668 663 666 667 669 670 669 665 666 676 698 721 732 733 732 731 731 729 726 724 721 720 719 718 718 718 719 719 719 718 719
639 637 635 634 632 630 628 627 625 625 625 637 645 665 671 685 683 688 687 685 681 678 677 672 668 664 668 667 668 664 684 683 706 721 738 737 737 737 736 735 733 734 732 731 730 729 729 730 732 732 730 729 729 732
644 642 640 638 636 634 632 630 628 626 642 660 667 687 691 693 695 691 689 685 683 681 677 671 668 671 676 677 686 683 696 722 729 745 745 746 744 742 741 740 740 741 743 742 740 737 739 741 740 740 741 742 741 742
645 645 643 642 639 636 635 634 633 640 661 678 692 698 699 700 698 696 694 688 684 680 678 676 674 682 691 701 704 712 719 738 745 751 752 752 751 750 749 750 751 752 750 748 747 747 749 750 750 752 753 752 752 751
647 649 648 645 643 641 636 638 648 668 684 695 707 708 705 702 702 700 695 692 687 683 686 686 699 706 700 710 724 735 744 750 754 758 759 758 757 758 758 758 759 758 757 755 753 755 757 760 762 761 761 763 762 763
650 651 651 648 645 644 644 652 669 689 706 711 711 713 712 712 709 704 700 694 688 689 695 707 711 728 734 736 748 755 758 761 763 762 764 765 765 766 766 766 766 766 765 765 765 767 769 770 770 771 772 773 773 774
654 652 651 651 649 650 659 672 680 703 718 721 724 722 719 717 713 709 705 702 699 699 707 724 742 749 755 754 755 760 762 764 767 770 771 773 773 773 774 773 773 773 775 776 777 779 780 781 782 782 781 781 780 782
657 656 654 653 652 656 669 683 687 701 714 725 725 726 726 725 722 715 710 707 706 712 731 749 758 763 763 761 762 765 767 770 770 773 778 779 779 778 780 782 784 785 786 787 787 787 787 788 788 788 787 787 788 790
660 658 657 656 656 660 675 685 696 706 716 718 723 722 729 729 727 727 725 723 725 744 757 769 769 769 768 769 770 771 773 774 776 777 780 783 787 788 790 791 791 791 792 793 793 794 794 795 797 795 794 794 794 795
663 662 661 661 665 672 683 688 694 702 708 715 720 722 733 743 745 744 748 746 761 772 775 776 777 776 776 778 780 781 782 782 784 786 788 790 793 795 796 797 797 798 799 800 800 801 802 801 800 799 799 799 799 799
664 664 665 667 676 687 701 694 701 703 715 720 725 734 744 754 753 755 771 774 782 785 784 784 784 784 784 786 787 788 789 789 792 794 795 797 798 800 800 802 802 803 804 805 805 804 804 804 804 803 802 803 803 804
667 672 677 685 691 708 706 711 707 713 723 732 739 750 746 755 758 773 781 786 786 787 788 789 789 790 792 793 794 795 796 795 797 799 801 801 803 805 805 806 806 807 807 807 807 807 807 807 807 806 806 805 805 805
679 694 693 702 700 710 729 735 733 730 746 746 754 758 757 754 775 787 791 790 792 792 792 792 794 795 798 800 801 802 802 801 802 804 806 806 807 809 810 811 811 811 811 810 810 810 810 809 809 809 808 808 808 808
704 707 706 712 716 715 726 739 743 746 752 755 754 752 761 778 792 792 788 795 797 796 796 796 797 800 803 804 805 806 807 807 806 807 810 810 810 810 812 813 814 815 814 814 813 812 812 811 811 811 811 811 810 809
718 720 711 711 710 713 730 735 736 747 757 759 765 769 782 804 807 791 793 795 797 798 797 798 800 801 805 807 808 809 809 809 809 811 813 813 813 814 814 814 815 816 816 815 814 814 813 813 813 813 812 812 811 811
715 721 729 734 732 732 746 755 761 766 767 759 769 790 799 802 794 794 795 798 798 799 800 802 803 805 807 809 811 812 813 813 814 815 816 817 817 817 817 817 817 817 817 816 816 815 814 814 814 813 812 812 812 811
729 728 733 748 748 753 758 766 768 765 766 765 788 794 792 790 793 794 798 799 801 802 803 806 808 809 810 811 812 813 814 814 814 817 819 820 819 820 819 819 819 818 817 817 816 816 815 815 814 813 812 811 811 810
733 733 746 761 765 769 771 771 775 772 770 772 777 786 792 797 798 799 801 802 803 804 806 808 809 810 812 812 814 814 814 815 814 814 817 818 818 819 819 819 818 817 817 816 816 815 815 814 813 812 811 810 809 808
731 741 754 764 773 779 779 775 775 775 778 785 787 795 799 802 803 804 804 805 806 807 808 809 811 812 813 814 814 815 816 816 816 816 816 817 818 818 818 817 817 817 816 816 815 814 813 813 812 811 810 808 807 805
745 755 761 769 776 778 776 778 786 791 796 799 802 801 803 807 812 807 808 808 809 809 810 811 812 813 814 814 814 815 815 816 817 817 817 818 818 818 817 817 816 816 815 814 813 813 812 811 810 808 807 806 804 802
756 755 764 770 778 782 781 782 789 793 798 804 803 802 804 807 813 808 808 807 808 808 809 811 813 813 814 815 815 816 817 817 817 817 817 817 817 817 816 815 814 814 813 812 811 811 810 808 807 806 805 803 801 799
Wind_Speed
29 29 28 28 30 32 33 33 35 35 36 37 40 42 44 45 43 41 29 35 20 3 5 5 7 6 9 12 9 3 3 2 4 7 4 5 4 7 2 5 8 7 6 4 2 2 8 4 7 3 2 5 7 8
25 27 31 30 29 29 27 25 27 28 30 31 34 37 41 46 50 44 15 32 28 3 2 3 23 14 11 8 8 6 5 5 5 4 4 3 2 0 6 7 3 2 6 6 7 8 15 5 2 1 3 4 4 4
30 27 23 26 22 18 19 21 24 27 28 31 32 33 36 42 48 50 27 31 20 4 1 2 8 8 11 12 7 5 2 4 4 3 4 4 4 5 6 5 5 5 4 4 3 8 14 7 4 10 11 7 5 2
27 21 22 18 12 14 18 19 21 21 25 29 34 35 37 40 46 49 27 30 25 4 2 4 18 13 10 7 9 6 2 3 4 2 3 3 3 3 4 3 5 8 7 8 5 5 5 4 5 6 9 6 4 2
15 18 7 7 10 11 13 18 19 15 19 29 36 34 36 39 40 37 25 35 31 8 6 3 6 22 21 23 23 23 7 3 2 0 1 3 3 2 0 2 2 5 4 3 7 7 5 6 7 6 7 4 3 3
15 5 7 10 10 11 8 9 14 10 11 19 30 39 38 40 41 28 5 27 33 7 3 3 3 5 9 14 8 5 4 3 3 3 2 3 4 4 4 4 5 9 11 10 5 15 7 4 6 8 3 4 5 6
15 12 13 16 23 20 22 20 24 17 17 21 25 37 45 44 30 3 5 17 34 20 0 1 2 2 12 5 1 2 3 2 2 1 5 4 2 2 1 3 9 9 13 11 14 9 6 9 4 6 5 6 6 7
14 17 20 24 35 33 38 35 31 34 40 40 41 45 49 36 15 6 14 40 39 7 2 3 1 3 3 3 2 2 3 3 4 3 2 3 2 2 2 10 12 12 14 8 16 12 6 6 5 7 6 6 11 12
18 21 23 26 28 36 38 42 44 44 47 40 44 42 24 5 3 7 26 26 13 3 3 3 4 3 1 2 2 1 2 1 1 2 1 3 3 4 8 10 10 11 10 12 11 7 11 12 10 12 10 12 11 10
35 28 29 28 26 25 22 23 23 22 19 14 11 5 4 4 7 14 9 4 4 4 3 2 0 3 3 1 1 1 2 2 3 4 3 4 3 2 10 9 9 11 11 11 7 9 9 11 11 12 12 9 11 11
40 36 30 26 22 18 14 11 10 7 11 6 3 3 3 6 4 3 3 2 1 3 2 1 2 3 1 3 2 2 2 2 3 2 3 3 2 5 7 9 10 11 10 9 9 10 10 10 8 7 10 12 12 13
24 23 23 23 23 21 19 10 10 15 10 11 14 8 5 3 3 5 2 2 2 2 2 2 2 2 2 1 2 1 3 1 2 2 4 3 4 7 8 10 12 11 12 13 14 13 14 15 13 11 12 12 15 20
15 17 19 21 22 20 16 19 19 13 8 5 5 4 3 4 8 5 2 3 3 3 4 3 2 1 2 1 2 2 3 2 2 4 3 2 5 7 8 7 11 12 13 14 15 19 21 20 22 18 13 19 22 23
12 15 16 19 20 18 16 12 2 3 8 4 4 6 4 5 4 3 2 2 2 2 4 2 1 1 1 1 1 3 4 4 4 3 3 4 7 6 8 9 10 12 12 13 14 17 17 19 19 23 23 22 24 23
16 16 18 19 18 15 15 12 16 12 7 5 5 5 5 2 2 2 3 2 3 2 2 2 0 3 4 3 4 4 4 5 4 2 2 3 7 9 10 10 10 10 10 11 15 14 18 20 21 23 24 25 26 25
10 6 19 21 23 14 8 14 19 8 4 4 6 4 4 3 4 4 3 3 3 4 1 1 3 3 5 3 4 6 4 4 2 2 3 6 10 10 9 10 10 13 15 16 19 21 22 22 22 23 26 27 26 26
9 5 10 17 14 24 10 7 8 6 5 5 3 5 5 2 3 3 3 4 3 2 2 3 5 3 2 3 4 4 3 3 5 6 6 10 11 10 11 13 18 20 20 20 21 22 22 21 22 23 20 23 26 26
4 4 9 16 12 7 13 9 4 5 6 3 3 6 3 3 4 3 5 6 3 2 2 3 3 6 4 3 3 3 5 7 7 7 8 9 12 17 17 15 19 21 21 22 23 23 22 20 18 16 18 19 21 22
3 7 8 11 10 5 4 5 6 5 6 3 5 6 4 4 7 6 5 6 5 5 3 3 5 3 3 3 8 6 6 6 7 7 9 16 17 16 17 20 22 22 22 21 20 18 19 21 18 17 17 17 18 17
3 7 6 10 5 4 5 3 6 5 2 3 4 8 8 6 8 10 10 8 8 4 6 5 4 3 2 5 6 6 5 6 7 8 7 7 15 19 18 16 15 16 17 18 20 18 18 20 20 20 21 19 18 17
6 9 7 7 6 10 4 3 4 3 4 3 4 4 6 10 13 13 12 7 7 4 5 5 6 7 13 15 15 15 13 11 6 6 7 7 13 15 15 16 17 17 16 15 14 16 17 15 14 20 22 22 21 21
5 5 3 6 4 4 4 7 4 4 3 3 3 2 3 3 4 8 8 9 5 6 4 5 5 7 9 10 14 18 18 20 19 18 17 15 6 9 11 12 13 13 14 14 15 15 16 17 18 16 19 19 18 17
2 4 4 6 6 5 2 3 4 3 3 2 3 3 3 3 2 2 3 4 3 5 11 11 16 17 16 19 20 19 17 16 13 13 14 15 16 17 18 17 15 14 11 13 16 16 15 15 15 17 17 17 16 15
4 5 4 3 4 2 3 4 3 3 4 3 3 3 3 2 2 3 3 2 2 7 6 9 11 7 12 15 8 12 12 16 16 15 13 14 12 13 16 16 18 16 13 14 14 16 15 12 13 14 15 16 16 15
6 7 5 5 4 5 5 4 4 4 4 4 4 4 2 3 3 3 2 2 2 3 3 10 11 9 6 4 9 12 12 15 13 11 13 12 15 14 13 15 17 15 13 14 14 14 15 13 11 13 13 11 12 12
6 4 4 1 3 4 1 3 3 3 3 3 2 1 3 3 4 3 2 1 1 2 1 4 6 5 5 8 5 8 10 10 15 14 12 11 9 12 10 8 8 10 11 8 9 12 12 11 11 10 9 8 8 7
5 3 3 4 2 4 4 4 4 4 4 3 1 3 4 4 1 1 2 2 2 7 14 14 14 12 9 11 14 12 10 10 14 16 15 15 14 11 9 10 9 7 8 5 5 6 6 6 6 5 4 5 6 7
3 4 5 5 5 5 4 4 4 3 2 3 3 4 4 5 2 1 2 14 18 17 18 17 17 17 16 13 10 11 13 12 15 16 17 14 12 11 10 9 7 5 4 4 6 8 6 3 4 6 4 2 4 5
4 2 4 6 5 5 5 3 2 2 2 1 4 2 2 2 1 6 14 17 14 16 18 18 17 16 15 12 9 8 7 16 14 3 2 2 3 5 5 3 3 3 2 2 3 4 2 6 5 5 4 5 6 5
2 2 4 4 5 5 4 3 1 2 3 4 4 5 4 5 8 12 16 15 14 13 13 13 13 10 12 10 11 10 9 6 3 6 5 4 6 5 1 2 3 3 1 3 5 3 2 5 5 4 4 6 6 7
3 3 5 4 4 1 2 2 14 12 4 4 4 4 3 2 7 11 12 13 14 15 14 14 10 9 12 10 7 7 4 4 5 5 6 6 6 4 1 2 2 2 3 4 4 3 4 5 6 7 7 8 10 11
3 4 4 5 2 2 2 2 2 3 2 3 2 3 3 3 2 1 2 5 7 8 9 9 10 6 4 3 3 3 2 6 5 3 3 3 3 3 5 5 4 5 6 7 5 4 4 5 6 6 7 9 12 12
4 6 4 4 3 2 3 3 3 3 3 2 1 2 2 3 3 3 2 2 4 12 11 10 6 4 3 4 4 5 4 3 2 2 1 1 1 2 4 3 3 2 3 3 2 4 6 8 9 10 11 11 13 15
Wind_Direction
296 292 294 291 286 281 275 268 261 254 247 241 235 228 223 220 213 202 208 187 186 183 274 302 227 150 180 199 194 181 124 239 151 187 192 222 212 208 152 188 173 173 168 160 96 277 268 288 48 26 263 324 331 2
306 303 297 292 290 285 273 263 253 250 242 237 232 227 222 217 208 202 199 189 187 167 264 237 263 276 199 160 194 193 193 163 187 154 205 192 225 224 158 229 198 223 193 185 170 201 249 277 112 70 227 243 321 4
305 305 297 293 288 278 272 261 253 249 241 232 223 219 217 213 207 194 195 171 178 161 359 280 223 206 195 193 124 192 243 202 163 165 195 194 219 151 223 227 236 241 176 207 168 240 236 244 193 195 216 211 204 82
315 314 305 301 287 282 280 267 259 248 236 225 221 218 212 206 198 192 175 172 166 114 205 228 207 261 194 188 214 267 212 116 133 129 196 201 175 178 193 196 213 222 173 213 235 260 271 233 233 209 257 213 209 147
336 336 11 8 337 327 303 274 254 248 231 221 211 201 194 192 185 175 163 170 174 156 173 217 156 210 217 194 179 216 198 196 104 67 294 231 209 98 291 18 262 357 325 202 241 230 197 226 223 207 203 202 151 200
339 31 36 27 30 26 25 62 120 126 134 147 168 175 175 172 162 138 137 183 184 188 113 155 227 152 176 178 162 195 205 170 151 140 241 262 255 149 164 195 56 26 323 354 328 308 225 14 35 9 57 15 5 344
74 69 73 65 58 65 68 89 115 103 115 117 157 162 162 155 138 127 183 162 181 177 335 86 7 49 160 121 188 153 148 190 142 212 189 197 309 8 121 171 17 360 332 323 340 349 30 26 16 33 45 26 21 25
75 85 88 83 69 77 82 90 93 87 116 113 122 125 141 142 144 63 103 160 166 202 128 135 303 75 102 147 148 130 161 199 188 199 135 148 33 89 66 359 356 357 334 335 342 7 8 349 24 21 20 46 49 36
95 95 94 96 86 83 93 86 87 94 98 108 99 106 106 80 99 133 101 117 142 152 125 94 134 166 7 140 130 147 151 133 348 115 212 129 63 36 353 344 357 350 346 330 319 13 24 45 33 27 31 37 57 39
92 103 93 95 92 82 71 82 87 111 112 102 83 41 40 40 101 120 34 30 18 357 43 93 119 79 62 20 330 82 60 164 151 222 105 71 80 51 4 357 348 347 344 344 354 10 7 34 38 33 39 47 62 65
80 73 70 60 64 63 65 72 63 72 34 64 60 57 89 41 69 55 88 100 44 26 36 219 160 142 202 136 165 195 162 175 152 197 105 78 75 13 1 12 8 2 359 12 29 37 37 44 50 61 57 58 65 69
80 64 57 51 51 50 46 67 75 67 74 100 114 97 51 37 55 81 83 39 65 99 37 11 22 98 158 168 134 181 167 126 126 67 69 65 20 13 33 26 23 19 30 44 48 53 55 60 62 68 68 65 67 72
71 47 43 50 50 56 69 83 88 55 67 66 58 61 33 345 48 48 45 31 50 12 2 355 30 58 58 55 105 134 170 131 77 52 71 42 12 33 44 49 44 40 46 51 53 56 58 58 58 60 67 67 71 70
47 40 52 50 45 52 55 53 96 73 49 57 51 37 58 12 48 30 346 300 335 1 334 313 269 72 52 108 353 75 39 27 64 67 59 19 18 42 46 50 53 46 47 55 58 62 61 62 63 63 64 70 76 74
49 50 51 41 31 36 50 57 60 71 52 51 31 40 52 45 331 298 290 341 348 288 321 344 11 43 19 49 12 51 60 64 46 61 65 20 47 49 54 52 54 56 59 62 64 66 66 69 69 66 64 68 72 74
5 39 37 40 31 26 42 62 51 62 60 61 42 16 346 34 342 347 343 337 336 323 284 345 45 78 54 41 48 22 62 47 60 54 41 58 56 49 56 61 62 62 63 64 63 65 65 62 65 68 65 61 62 67
3 48 11 10 16 29 54 70 48 49 51 42 27 19 359 351 333 327 323 325 297 342 47 48 48 30 45 55 58 30 46 69 91 74 61 54 57 60 62 61 59 58 54 53 58 60 62 66 71 69 65 61 64 66
34 4 18 8 7 35 40 48 74 66 63 13 34 2 36 3 346 332 345 348 6 50 42 60 61 38 37 58 60 93 82 72 60 67 73 71 69 66 64 64 61 60 60 58 58 56 52 54 54 52 65 72 71 69
55 345 344 9 21 60 65 43 63 83 46 62 39 32 13 23 17 10 31 11 36 50 74 54 53 43 45 36 109 100 97 96 94 78 67 59 66 73 71 66 64 60 58 58 62 62 60 57 55 56 59 67 69 68
46 15 9 22 33 81 75 57 86 97 95 128 95 62 51 43 42 43 39 39 50 63 48 44 39 32 55 65 91 98 95 100 102 95 79 67 63 64 60 64 64 67 67 63 58 64 66 61 55 63 70 71 72 70
7 10 17 32 42 64 88 95 65 107 129 107 165 108 87 53 46 42 42 17 48 40 66 65 69 63 68 73 76 82 75 82 80 85 97 88 73 74 74 71 71 69 68 62 62 56 58 58 62 73 84 85 88 90
4 17 28 32 67 54 65 19 108 145 98 132 134 72 73 57 26 35 40 37 59 39 38 63 65 85 80 73 78 82 89 86 83 79 77 84 82 74 67 69 80 79 74 72 75 74 72 78 81 89 91 91 90 90
358 34 44 37 69 58 296 17 67 53 87 53 47 46 38 51 75 58 67 37 74 57 76 74 69 69 76 78 76 72 79 86 84 86 87 86 82 81 76 65 70 80 78 77 83 87 84 75 73 82 93 98 95 95
42 52 40 64 72 109 21 22 45 56 43 53 59 47 31 102 86 62 66 34 31 120 103 94 90 80 67 58 54 58 72 89 80 72 95 95 85 73 80 74 72 77 85 93 86 79 82 94 74 73 84 88 82 82
69 345 65 17 17 71 56 27 19 55 56 44 66 19 347 58 69 72 100 76 11 41 56 93 89 86 92 78 54 50 74 95 87 76 53 114 112 98 84 81 75 69 82 93 85 83 79 91 92 81 71 72 71 71
69 320 73 55 353 85 99 74 71 105 97 59 66 51 51 68 64 68 80 139 43 14 46 124 115 95 66 77 82 62 81 97 102 84 61 85 126 142 130 110 87 62 52 77 91 87 81 79 81 89 80 59 52 50
64 359 360 23 38 80 67 56 55 68 64 78 337 42 71 69 92 101 91 65 88 69 98 122 115 108 113 103 95 91 94 92 93 99 96 83 79 82 93 104 95 78 54 59 63 59 70 76 69 50 63 67 42 24
65 50 73 322 55 24 90 61 51 60 44 352 64 48 106 149 156 89 127 127 116 110 107 110 116 119 118 115 116 119 113 114 114 109 99 87 80 81 81 84 76 77 74 65 61 49 50 47 51 24 16 22 23 6
50 45 74 41 49 42 37 67 80 45 338 60 104 96 98 63 120 116 130 134 131 126 118 115 114 117 112 106 100 107 138 175 152 139 175 166 115 97 83 70 74 60 67 72 59 14 89 19 13 341 330 313 325 311
37 61 88 56 59 50 1 46 52 313 35 93 97 99 65 32 48 131 142 142 137 135 140 145 149 144 137 122 108 85 83 85 130 154 150 178 172 144 74 27 33 19 352 6 355 319 329 5 2 341 10 7 356 347
92 72 71 58 82 336 197 137 71 58 49 47 37 84 109 127 60 76 106 131 140 142 137 128 130 151 170 184 176 148 123 97 123 122 127 139 152 169 235 308 304 313 321 332 339 340 350 355 347 346 340 339 342 341
38 81 116 99 113 271 7 32 83 83 23 57 358 45 20 56 55 329 67 154 161 168 159 162 154 138 133 143 164 159 136 132 127 164 190 200 224 285 305 293 272 284 298 300 293 298 320 346 353 351 341 336 331 332
69 73 63 91 81 144 264 89 41 70 34 53 356 148 162 132 173 212 114 354 220 185 180 179 166 143 133 117 96 109 96 82 83 108 109 260 278 318 319 304 316 354 6 359 320 320 329 330 328 327 327 327 328 328